This is the latest recevied weather packets stored in our database for station/object WB0OCV. If no packets are shown the sender has not sent any weather packets the latest 10 day(s).
| Time | Temp. | Humidity | Pressure | Rain* | Wind** | Luminosity | Snow |
|---|---|---|---|---|---|---|---|
| 1778209899 | 10° C | 55% | 1009.9 hPa | 0 mm | - | 0 W/m² | - |
| 1778209596 | 10° C | 55% | 1009.9 hPa | 0 mm | - | 0 W/m² | - |
| 1778209293 | 10° C | 56% | 1010 hPa | 0 mm | - | 0 W/m² | - |
| 1778208989 | 10° C | 56% | 1010 hPa | 0 mm | - | 0 W/m² | - |
| 1778208687 | 10.56° C | 55% | 1010.2 hPa | 0 mm | - | 0 W/m² | - |
| 1778208382 | 10.56° C | 55% | 1010 hPa | 0 mm | - | 0 W/m² | - |
| 1778208080 | 10.56° C | 52% | 1009.8 hPa | 0 mm | - | 0 W/m² | - |
| 1778207776 | 10.56° C | 52% | 1009.9 hPa | 0 mm | - | 0 W/m² | - |
| 1778207474 | 11.11° C | 52% | 1010.1 hPa | 0 mm | - | 0 W/m² | - |
| 1778207169 | 10.56° C | 55% | 1010.1 hPa | 0 mm | - | 0 W/m² | - |
| 1778206867 | 10.56° C | 54% | 1010 hPa | 0 mm | - | 0 W/m² | - |
| 1778206562 | 10.56° C | 58% | 1009.9 hPa | 0 mm | - | 0 W/m² | - |
| 1778206258 | 10.56° C | 55% | 1009.9 hPa | 0 mm | - | 0 W/m² | - |
| 1778205956 | 10.56° C | 57% | 1009.9 hPa | 0 mm | - | 0 W/m² | - |
| 1778205654 | 11.11° C | 56% | 1010 hPa | 0 mm | - | 0 W/m² | - |
| 1778205351 | 11.11° C | 58% | 1009.8 hPa | 0 mm | - | 0 W/m² | - |
| 1778205048 | 11.11° C | 55% | 1010.1 hPa | 0 mm | - | 0 W/m² | - |
| 1778204744 | 11.11° C | 58% | 1009.9 hPa | 0 mm | - | 0 W/m² | - |
| 1778204440 | 10.56° C | 58% | 1010.1 hPa | 0 mm | - | 0 W/m² | - |
| 1778204136 | 10.56° C | 58% | 1009.9 hPa | 0 mm | - | 0 W/m² | - |
| 1778203834 | 10.56° C | 59% | 1009.9 hPa | 0 mm | - | 0 W/m² | - |
| 1778203531 | 11.11° C | 59% | 1009.7 hPa | 0 mm | - | 0 W/m² | - |
| 1778203228 | 10.56° C | 59% | 1009.6 hPa | 0 mm | - | 0 W/m² | - |
| 1778202927 | 10° C | 61% | 1009.6 hPa | 0 mm | - | 0 W/m² | - |
| 1778202624 | 9.44° C | 70% | 1009.7 hPa | 0 mm | - | 0 W/m² | - |
* Rain latest hour (hover to see other rain measurements)
** Current wind speed in m/s (hover to see current wind gust speed)